| time (UTC) | temp F | wind direction | speed MPH | gust MPH | rain 1hr in | rain 24hr in | rain mn in | humidity % | barometer mb |
| 20260903221206 | 59 | 207 | 2.0 | 6.0 | 0.00 | 0.17 | 0.00 | 61 | 1010.6 |
| 20260903220207 | 59 | 189 | 1.0 | 4.0 | 0.00 | 0.17 | 0.00 | 60 | 1010.7 |
| 20260903215208 | 59 | 195 | 2.0 | 5.0 | 0.00 | 0.17 | 0.00 | 61 | 1010.8 |
| 20260903214207 | 58 | 70 | 1.0 | 2.0 | 0.00 | 0.17 | 0.00 | 60 | 1010.9 |
| 20260903213206 | 58 | 5 | 3.0 | 6.0 | 0.00 | 0.17 | 0.00 | 62 | 1011.0 |
| 20260903212247 | 58 | 223 | 0.0 | 2.0 | 0.00 | 0.17 | 0.00 | 60 | 1010.9 |
| 20260903211206 | 58 | 150 | 0.0 | 2.0 | 0.00 | 0.17 | 0.00 | 61 | 1011.0 |
| 20260903210207 | 57 | 323 | 3.0 | 6.0 | 0.00 | 0.17 | 0.00 | 63 | 1011.0 |
| 20260903205207 | 58 | 7 | 1.0 | 6.0 | 0.00 | 0.17 | 0.00 | 64 | 1010.9 |
| 20260903204207 | 58 | 276 | 0.0 | 2.0 | 0.00 | 0.17 | 0.00 | 64 | 1011.0 |
| 20260903203207 | 57 | 221 | 3.0 | 5.0 | 0.00 | 0.18 | 0.00 | 66 | 1011.3 |
| 20260903202209 | 56 | 342 | 1.0 | 3.0 | 0.00 | 0.18 | 0.00 | 69 | 1011.3 |
| 20260903201227 | 56 | 7 | 2.0 | 3.0 | 0.00 | 0.18 | 0.00 | 69 | 1011.3 |
| 20260903200207 | 56 | 276 | 1.0 | 4.0 | 0.00 | 0.18 | 0.00 | 69 | 1011.3 |
| 20260903195227 | 57 | 354 | 1.0 | 4.0 | 0.00 | 0.18 | 0.00 | 69 | 1011.4 |
| 20260903194207 | 56 | 356 | 1.0 | 3.0 | 0.00 | 0.18 | 0.00 | 70 | 1011.5 |
| 20260903193227 | 56 | 263 | 2.0 | 5.0 | 0.00 | 0.19 | 0.00 | 70 | 1011.6 |
| 20260903192207 | 56 | 324 | 2.0 | 5.0 | 0.00 | 0.20 | 0.00 | 71 | 1011.7 |
| 20260903191207 | 57 | 285 | 0.0 | 3.0 | 0.00 | 0.21 | 0.00 | 71 | 1011.6 |
| 20260903190227 | 57 | 266 | 1.0 | 3.0 | 0.00 | 0.22 | 0.00 | 73 | 1011.6 |
| 20260903185207 | 56 | 257 | 1.0 | 3.0 | 0.00 | 0.22 | 0.00 | 73 | 1011.7 |
| 20260903184207 | 56 | 8 | 3.0 | 5.0 | 0.00 | 0.22 | 0.00 | 75 | 1011.8 |
| 20260903183207 | 55 | 86 | 1.0 | 2.0 | 0.00 | 0.22 | 0.00 | 75 | 1011.9 |
| 20260903182207 | 55 | 21 | 0.0 | 2.0 | 0.00 | 0.22 | 0.00 | 76 | 1011.9 |
| 20260903181207 | 55 | 14 | 0.0 | 2.0 | 0.00 | 0.22 | 0.00 | 76 | 1011.9 |
| 20260903180207 | 54 | 0.0 | 1.0 | 0.00 | 0.22 | 0.00 | 76 | 1012.0 | |
| 20260903175207 | 54 | 225 | 2.0 | 5.0 | 0.00 | 0.22 | 0.00 | 76 | 1012.1 |
| 20260903174207 | 54 | 260 | 1.0 | 4.0 | 0.00 | 0.22 | 0.00 | 78 | 1012.2 |
| 20260903173207 | 53 | 214 | 4.0 | 6.0 | 0.00 | 0.22 | 0.00 | 78 | 1012.1 |
| 20260903172227 | 53 | 206 | 2.0 | 3.0 | 0.00 | 0.22 | 0.00 | 79 | 1012.1 |
| 20260903171207 | 53 | 0.0 | 2.0 | 0.00 | 0.22 | 0.00 | 81 | 1012.1 | |
| 20260903170227 | 52 | 200 | 2.0 | 4.0 | 0.00 | 0.22 | 0.00 | 82 | 1012.1 |
| 20260903165227 | 52 | 189 | 2.0 | 5.0 | 0.00 | 0.22 | 0.00 | 81 | 1012.1 |
| 20260903164207 | 52 | 208 | 3.0 | 5.0 | 0.00 | 0.22 | 0.00 | 81 | 1012.1 |
| 20260903163207 | 52 | 189 | 3.0 | 5.0 | 0.00 | 0.22 | 0.00 | 83 | 1012.0 |
| 20260903162207 | 52 | 179 | 2.0 | 6.0 | 0.00 | 0.22 | 0.00 | 82 | 1012.0 |
| 20260903161207 | 51 | 172 | 1.0 | 3.0 | 0.00 | 0.22 | 0.00 | 83 | 1012.1 |
| 20260903160207 | 51 | 181 | 2.0 | 4.0 | 0.00 | 0.22 | 0.00 | 83 | 1012.1 |
| 20260903155207 | 51 | 149 | 2.0 | 5.0 | 0.00 | 0.22 | 0.00 | 84 | 1012.3 |
| 20260903154207 | 50 | 160 | 2.0 | 7.0 | 0.00 | 0.22 | 0.00 | 84 | 1012.3 |
| 20260903153207 | 50 | 148 | 0.0 | 4.0 | 0.00 | 0.22 | 0.00 | 86 | 1012.3 |
| 20260903152207 | 49 | 0.0 | 1.0 | 0.00 | 0.22 | 0.00 | 87 | 1012.2 | |
| 20260903151207 | 48 | 185 | 1.0 | 3.0 | 0.00 | 0.22 | 0.00 | 88 | 1012.3 |
| 20260903150207 | 48 | 161 | 0.0 | 3.0 | 0.00 | 0.22 | 0.00 | 89 | 1012.2 |
| 20260903145207 | 47 | 159 | 0.0 | 3.0 | 0.00 | 0.22 | 0.00 | 93 | 1012.2 |
| 20260903144227 | 47 | 149 | 0.0 | 3.0 | 0.00 | 0.22 | 0.00 | 93 | 1012.3 |
| 20260903143227 | 46 | 0.0 | 2.0 | 0.00 | 0.22 | 0.00 | 96 | 1012.3 | |
| 20260903142207 | 46 | 0.0 | 0.0 | 0.00 | 0.22 | 0.00 | 97 | 1012.3 | |
| 20260903141207 | 45 | 132 | 1.0 | 5.0 | 0.00 | 0.22 | 0.00 | 99 | 1012.3 |
| 20260903140207 | 44 | 0.0 | 0.0 | 0.00 | 0.22 | 0.00 | 100 | 1012.2 | |
| 20260903135207 | 43 | 0.0 | 0.0 | 0.00 | 0.22 | 0.00 | 100 | 1012.1 | |
| 20260903134207 | 43 | 0.0 | 1.0 | 0.00 | 0.22 | 0.00 | 100 | 1012.2 | |
| 20260903133207 | 43 | 0.0 | 0.0 | 0.00 | 0.22 | 0.00 | 100 | 1012.3 | |
| 20260903132207 | 43 | 0.0 | 0.0 | 0.00 | 0.22 | 0.00 | 100 | 1012.4 | |
| 20260903131207 | 42 | 0.0 | 0.0 | 0.00 | 0.22 | 0.00 | 100 | 1012.3 | |
| 20260903130207 | 42 | 0.0 | 0.0 | 0.00 | 0.22 | 0.00 | 100 | 1012.3 | |
| 20260903125207 | 42 | 0.0 | 1.0 | 0.00 | 0.22 | 0.00 | 100 | 1012.3 | |
| 20260903124207 | 42 | 0.0 | 0.0 | 0.00 | 0.22 | 0.00 | 100 | 1012.2 | |
| 20260903123207 | 42 | 0.0 | 0.0 | 0.00 | 0.22 | 0.00 | 100 | 1012.1 | |
| 20260903122207 | 41 | 0.0 | 0.0 | 0.00 | 0.22 | 0.00 | 100 | 1012.2 | |
| 20260903121207 | 41 | 0.0 | 0.0 | 0.00 | 0.22 | 0.00 | 100 | 1012.2 | |
| 20260903120207 | 41 | 0.0 | 0.0 | 0.00 | 0.22 | 0.00 | 100 | 1012.2 | |
| 20260903115207 | 42 | 210 | 0.0 | 2.0 | 0.00 | 0.22 | 0.00 | 100 | 1012.3 |
| 20260903114207 | 42 | 0.0 | 0.0 | 0.00 | 0.22 | 0.00 | 100 | 1012.2 | |
| 20260903113207 | 43 | 0.0 | 0.0 | 0.00 | 0.22 | 0.00 | 100 | 1012.2 | |
| 20260903112207 | 44 | 0.0 | 0.0 | 0.00 | 0.22 | 0.00 | 100 | 1012.1 | |
| 20260903111207 | 44 | 0.0 | 1.0 | 0.00 | 0.22 | 0.00 | 100 | 1012.2 | |
| 20260903110227 | 45 | 0.0 | 0.0 | 0.00 | 0.22 | 0.00 | 100 | 1012.1 | |
| 20260903105208 | 45 | 0.0 | 0.0 | 0.00 | 0.22 | 0.00 | 100 | 1012.2 | |
| 20260903104227 | 46 | 0.0 | 0.0 | 0.00 | 0.22 | 0.00 | 100 | 1012.1 | |
| 20260903103207 | 46 | 0.0 | 0.0 | 0.00 | 0.22 | 0.00 | 100 | 1012.1 | |
| 20260903102207 | 46 | 0.0 | 0.0 | 0.00 | 0.22 | 0.00 | 100 | 1012.1 | |
| 20260903101207 | 46 | 0.0 | 0.0 | 0.00 | 0.22 | 0.00 | 100 | 1012.1 | |
| 20260903100207 | 46 | 0.0 | 0.0 | 0.00 | 0.22 | 0.00 | 100 | 1012.0 | |
| 20260903095208 | 47 | 0.0 | 0.0 | 0.00 | 0.22 | 0.00 | 100 | 1011.8 | |
| 20260903094207 | 47 | 0.0 | 0.0 | 0.00 | 0.22 | 0.00 | 100 | 1011.8 | |
| 20260903093207 | 46 | 0.0 | 0.0 | 0.00 | 0.22 | 0.00 | 100 | 1011.8 | |
| 20260903092207 | 46 | 0.0 | 0.0 | 0.00 | 0.22 | 0.00 | 100 | 1012.0 | |
| 20260903091207 | 46 | 0.0 | 0.0 | 0.00 | 0.22 | 0.00 | 100 | 1012.0 | |
| 20260903090207 | 46 | 0.0 | 0.0 | 0.00 | 0.22 | 0.00 | 99 | 1011.9 | |
| 20260903085207 | 47 | 0.0 | 0.0 | 0.00 | 0.22 | 0.00 | 98 | 1011.9 | |
| 20260903084207 | 47 | 0.0 | 1.0 | 0.00 | 0.22 | 0.00 | 95 | 1011.9 | |
| 20260903083227 | 47 | 343 | 0.0 | 1.0 | 0.00 | 0.22 | 0.00 | 97 | 1011.9 |
| 20260903082208 | 47 | 0.0 | 0.0 | 0.00 | 0.22 | 0.00 | 96 | 1012.0 | |
| 20260903081207 | 49 | 199 | 1.0 | 3.0 | 0.00 | 0.22 | 0.00 | 91 | 1011.8 |
| 20260903080207 | 49 | 148 | 0.0 | 2.0 | 0.00 | 0.22 | 0.00 | 95 | 1011.8 |
| 20260903075207 | 50 | 0.0 | 1.0 | 0.00 | 0.22 | 0.00 | 94 | 1011.8 | |
| 20260903074228 | 50 | 7 | 0.0 | 3.0 | 0.00 | 0.22 | 0.00 | 92 | 1011.7 |
| 20260903073228 | 51 | 22 | 2.0 | 7.0 | 0.00 | 0.22 | 0.00 | 91 | 1011.8 |
| 20260903072207 | 50 | 359 | 1.0 | 3.0 | 0.00 | 0.22 | 0.00 | 97 | 1011.8 |
| 20260903071207 | 48 | 16 | 0.0 | 2.0 | 0.00 | 0.22 | 0.00 | 100 | 1011.5 |
| 20260903070207 | 48 | 215 | 0.0 | 3.0 | 0.00 | 0.22 | 0.00 | 100 | 1011.5 |
| 20260903065207 | 48 | 0.0 | 0.0 | 0.00 | 0.22 | 0.22 | 100 | 1011.4 | |
| 20260903064248 | 49 | 0.0 | 0.0 | 0.00 | 0.22 | 0.22 | 100 | 1011.4 | |
| 20260903063207 | 49 | 0.0 | 0.0 | 0.00 | 0.22 | 0.22 | 98 | 1011.4 | |
| 20260903062207 | 51 | 0.0 | 0.0 | 0.00 | 0.22 | 0.22 | 92 | 1011.1 | |
| 20260903061247 | 51 | 0.0 | 1.0 | 0.00 | 0.22 | 0.22 | 92 | 1011.1 | |
| 20260903060207 | 51 | 359 | 2.0 | 8.0 | 0.01 | 0.22 | 0.22 | 93 | 1011.2 |
| 20260903055207 | 50 | 272 | 1.0 | 3.0 | 0.01 | 0.22 | 0.22 | 100 | 1011.3 |
| 20260903054207 | 51 | 0.0 | 2.0 | 0.01 | 0.22 | 0.22 | 100 | 1011.1 | |
| 20260903053208 | 51 | 0.0 | 0.0 | 0.01 | 0.22 | 0.22 | 100 | 1010.8 | |
| 20260903052208 | 51 | 343 | 1.0 | 5.0 | 0.01 | 0.22 | 0.22 | 96 | 1011.3 |
| 20260903051208 | 51 | 0.0 | 0.0 | 0.01 | 0.22 | 0.22 | 100 | 1011.4 | |
| 20260903050208 | 51 | 0.0 | 0.0 | 0.00 | 0.21 | 0.21 | 100 | 1011.2 | |
| 20260903045207 | 51 | 0.0 | 0.0 | 0.01 | 0.21 | 0.21 | 100 | 1011.2 | |
| 20260903044328 | 51 | 0.0 | 1.0 | 0.02 | 0.21 | 0.21 | 99 | 1011.0 | |
| 20260903043228 | 51 | 0.0 | 0.0 | 0.02 | 0.21 | 0.21 | 99 | 1010.8 | |
| 20260903042209 | 51 | 0.0 | 0.0 | 0.03 | 0.21 | 0.21 | 97 | 1010.6 | |
| 20260903041227 | 52 | 169 | 0.0 | 2.0 | 0.04 | 0.21 | 0.21 | 95 | 1010.2 |
| 20260903040207 | 51 | 90 | 1.0 | 3.0 | 0.05 | 0.21 | 0.21 | 96 | 1010.3 |
| 20260903035208 | 52 | 100 | 1.0 | 3.0 | 0.05 | 0.20 | 0.20 | 95 | 1010.1 |
| 20260903034247 | 53 | 179 | 3.0 | 7.0 | 0.05 | 0.19 | 0.19 | 90 | 1010.0 |
| 20260903033228 | 53 | 177 | 2.0 | 5.0 | 0.06 | 0.19 | 0.19 | 90 | 1009.8 |
| 20260903032207 | 53 | 168 | 4.0 | 8.0 | 0.06 | 0.18 | 0.18 | 89 | 1009.9 |
| 20260903031208 | 51 | 176 | 3.0 | 8.0 | 0.06 | 0.17 | 0.17 | 94 | 1009.9 |
| 20260903030208 | 50 | 166 | 0.0 | 3.0 | 0.06 | 0.16 | 0.16 | 97 | 1009.8 |
| 20260903025208 | 52 | 180 | 2.0 | 7.0 | 0.05 | 0.15 | 0.15 | 91 | 1009.8 |
| 20260903024208 | 51 | 199 | 1.0 | 6.0 | 0.05 | 0.14 | 0.14 | 99 | 1009.9 |
| 20260903023228 | 51 | 112 | 1.0 | 3.0 | 0.04 | 0.13 | 0.13 | 100 | 1009.9 |
| 20260903022208 | 51 | 113 | 3.0 | 9.0 | 0.04 | 0.12 | 0.12 | 100 | 1010.1 |
| 20260903021228 | 51 | 117 | 4.0 | 8.0 | 0.03 | 0.11 | 0.11 | 100 | 1010.6 |
| 20260903020213 | 51 | 0.0 | 0.0 | 0.02 | 0.10 | 0.10 | 100 | 1010.4 | |
| 20260903002710 | 56 | 304 | 0.0 | 2.0 | 0.01 | 0.06 | 0.06 | 95 | 1010.3 |
| 20260903001708 | 57 | 184 | 3.0 | 8.0 | 0.01 | 0.06 | 0.06 | 90 | 1010.2 |
| 20260903000708 | 57 | 269 | 4.0 | 7.0 | 0.01 | 0.06 | 0.06 | 88 | 1010.0 |
| 20260902235708 | 59 | 132 | 7.0 | 12.0 | 0.00 | 0.05 | 0.05 | 81 | 1009.8 |
| 20260902234748 | 59 | 130 | 6.0 | 10.0 | 0.00 | 0.05 | 0.05 | 78 | 1009.6 |
| 20260902233708 | 59 | 85 | 6.0 | 11.0 | 0.00 | 0.05 | 0.05 | 78 | 1009.6 |
| 20260902232708 | 59 | 81 | 10.0 | 16.0 | 0.00 | 0.05 | 0.05 | 78 | 1009.6 |
| 20260902231708 | 59 | 116 | 9.0 | 16.0 | 0.00 | 0.05 | 0.05 | 78 | 1009.5 |
| 20260902230708 | 58 | 120 | 10.0 | 14.0 | 0.00 | 0.05 | 0.05 | 79 | 1009.6 |
| 20260902225708 | 58 | 99 | 9.0 | 15.0 | 0.00 | 0.05 | 0.05 | 79 | 1009.6 |
| 20260902224708 | 58 | 141 | 8.0 | 11.0 | 0.00 | 0.05 | 0.05 | 80 | 1009.6 |
| 20260902223708 | 58 | 73 | 10.0 | 16.0 | 0.00 | 0.05 | 0.05 | 78 | 1009.5 |
| 20260902222708 | 58 | 106 | 8.0 | 14.0 | 0.00 | 0.05 | 0.05 | 78 | 1009.5 |
| 20260902221708 | 58 | 99 | 8.0 | 16.0 | 0.00 | 0.05 | 0.05 | 78 | 1009.5 |